Track STARLINK-2456 now! 10-day predictions STARLINK-2456 is classified as:
1 47846U 21018BM 22181.27639139 .00000387 00000-0 44930-4 0 9997 2 47846 53.0546 184.8752 0001648 61.5556 298.5599 15.06385150 73412